TimeMDT,TemperatureF,Dew PointF,Humidity,Sea Level PressureIn,VisibilityMPH,Wind Direction,Wind SpeedMPH,Gust SpeedMPH,PrecipitationIn,Events,Conditions,WindDirDegrees,DateUTC
12:15 AM,47.1,36.0,65,30.13,10.0,WSW,4.6,-,N/A,,Clear,250,2013-09-29 06:15:00
12:35 AM,46.6,35.8,66,30.13,10.0,West,5.8,-,N/A,,Clear,260,2013-09-29 06:35:00
12:55 AM,45.5,36.1,70,30.13,10.0,West,6.9,-,N/A,,Clear,260,2013-09-29 06:55:00
1:15 AM,43.9,36.5,75,30.13,10.0,West,8.1,-,N/A,,Clear,280,2013-09-29 07:15:00
1:35 AM,44.6,36.0,72,30.13,10.0,West,8.1,-,N/A,,Clear,280,2013-09-29 07:35:00
1:55 AM,44.1,35.4,72,30.12,10.0,West,8.1,-,N/A,,Clear,270,2013-09-29 07:55:00
2:15 AM,44.1,34.7,70,30.11,10.0,West,6.9,-,N/A,,Clear,270,2013-09-29 08:15:00
2:35 AM,43.0,34.7,73,30.10,10.0,West,6.9,-,N/A,,Clear,270,2013-09-29 08:35:00
2:55 AM,42.3,34.7,75,30.09,10.0,West,6.9,-,N/A,,Clear,270,2013-09-29 08:55:00
3:15 AM,43.0,33.4,69,30.09,10.0,WSW,6.9,-,N/A,,Clear,250,2013-09-29 09:15:00
3:35 AM,41.0,33.8,76,30.09,10.0,West,10.4,-,N/A,,Clear,260,2013-09-29 09:35:00
3:55 AM,40.6,33.8,77,30.09,10.0,West,8.1,-,N/A,,Clear,260,2013-09-29 09:55:00
4:15 AM,39.6,33.8,80,30.09,10.0,WSW,9.2,-,N/A,,Clear,250,2013-09-29 10:15:00
4:35 AM,38.5,34.2,84,30.08,10.0,WSW,6.9,-,N/A,,Clear,250,2013-09-29 10:35:00
4:55 AM,39.2,34.2,82,30.07,10.0,WSW,8.1,-,N/A,,Clear,240,2013-09-29 10:55:00
5:15 AM,38.5,33.6,83,30.08,10.0,WSW,5.8,-,N/A,,Clear,250,2013-09-29 11:15:00
5:35 AM,37.8,34.0,86,30.07,10.0,SW,9.2,-,N/A,,Clear,230,2013-09-29 11:35:00
5:55 AM,37.2,33.8,87,30.07,10.0,NNE,5.8,-,N/A,,Clear,20,2013-09-29 11:55:00
6:15 AM,36.7,34.0,90,30.07,10.0,West,6.9,-,N/A,,Clear,260,2013-09-29 12:15:00
6:35 AM,37.4,34.0,87,30.07,10.0,WSW,4.6,-,N/A,,Clear,240,2013-09-29 12:35:00
6:55 AM,36.1,33.6,91,30.06,10.0,WSW,3.5,-,N/A,,Clear,250,2013-09-29 12:55:00
7:15 AM,37.4,35.1,91,30.06,10.0,Calm,Calm,-,N/A,,Clear,0,2013-09-29 13:15:00
7:35 AM,39.7,36.5,88,30.07,10.0,WSW,6.9,-,N/A,,Clear,250,2013-09-29 13:35:00
7:55 AM,42.3,36.7,81,30.07,10.0,SW,4.6,-,N/A,,Clear,230,2013-09-29 13:55:00
8:15 AM,44.8,38.8,80,30.08,10.0,West,8.1,-,N/A,,Clear,260,2013-09-29 14:15:00
8:35 AM,46.8,39.7,77,30.07,10.0,WSW,5.8,-,N/A,,Clear,250,2013-09-29 14:35:00
8:55 AM,48.7,40.8,74,30.06,10.0,WSW,8.1,-,N/A,,Clear,240,2013-09-29 14:55:00
9:15 AM,50.2,39.9,68,30.06,10.0,SW,6.9,-,N/A,,Clear,230,2013-09-29 15:15:00
9:35 AM,52.3,41.0,65,30.07,10.0,West,10.4,-,N/A,,Clear,260,2013-09-29 15:35:00
9:55 AM,54.7,42.1,62,30.06,10.0,WSW,8.1,-,N/A,,Clear,250,2013-09-29 15:55:00
10:15 AM,57.6,42.8,58,30.06,10.0,WSW,4.6,-,N/A,,Clear,250,2013-09-29 16:15:00
10:35 AM,62.2,42.3,48,30.05,10.0,West,5.8,-,N/A,,Clear,260,2013-09-29 16:35:00
10:55 AM,64.2,41.7,44,30.04,10.0,WSW,6.9,-,N/A,,Clear,250,2013-09-29 16:55:00
11:15 AM,65.3,40.8,41,30.04,10.0,Calm,Calm,-,N/A,,Clear,0,2013-09-29 17:15:00
11:35 AM,66.4,40.6,39,30.03,10.0,WNW,3.5,-,N/A,,Clear,290,2013-09-29 17:35:00
11:55 AM,67.6,40.6,37,30.01,10.0,SSW,3.5,-,N/A,,Clear,210,2013-09-29 17:55:00
12:15 PM,69.8,39.7,33,30.00,10.0,South,5.8,-,N/A,,Clear,180,2013-09-29 18:15:00
12:35 PM,70.9,36.5,28,29.99,10.0,SSW,4.6,-,N/A,,Clear,210,2013-09-29 18:35:00
12:55 PM,72.3,28.2,19,29.98,10.0,SSW,4.6,-,N/A,,Clear,210,2013-09-29 18:55:00
1:15 PM,73.4,32.4,22,29.97,10.0,SSW,3.5,-,N/A,,Clear,200,2013-09-29 19:15:00
1:35 PM,73.6,34.0,23,29.96,10.0,South,3.5,-,N/A,,Clear,170,2013-09-29 19:35:00
1:55 PM,73.9,28.2,18,29.96,10.0,Calm,Calm,-,N/A,,Clear,0,2013-09-29 19:55:00
2:15 PM,75.2,28.4,18,29.95,10.0,Calm,Calm,-,N/A,,Clear,0,2013-09-29 20:15:00
2:35 PM,74.8,25.0,16,29.94,10.0,Calm,Calm,-,N/A,,Clear,0,2013-09-29 20:35:00
2:55 PM,74.8,25.9,16,29.94,10.0,Calm,Calm,-,N/A,,Clear,0,2013-09-29 20:55:00
3:15 PM,75.7,27.1,17,29.93,10.0,South,5.8,-,N/A,,Clear,170,2013-09-29 21:15:00
3:35 PM,75.4,27.0,17,29.93,10.0,SE,5.8,-,N/A,,Clear,130,2013-09-29 21:35:00
3:55 PM,75.6,23.5,14,29.93,10.0,ESE,6.9,-,N/A,,Clear,110,2013-09-29 21:55:00
4:15 PM,75.6,26.8,16,29.93,10.0,SE,3.5,-,N/A,,Clear,130,2013-09-29 22:15:00
4:35 PM,72.7,25.7,17,29.92,10.0,SE,5.8,-,N/A,,Clear,130,2013-09-29 22:35:00
4:55 PM,70.7,29.7,22,29.92,10.0,ESE,4.6,-,N/A,,Clear,120,2013-09-29 22:55:00
5:15 PM,69.1,31.8,25,29.92,10.0,ESE,4.6,-,N/A,,Clear,120,2013-09-29 23:15:00
5:35 PM,70.0,34.9,28,29.91,10.0,East,4.6,-,N/A,,Clear,90,2013-09-29 23:35:00
5:55 PM,67.6,35.2,30,29.91,10.0,Calm,Calm,-,N/A,,Clear,0,2013-09-29 23:55:00
6:15 PM,64.4,34.0,32,29.91,10.0,ESE,5.8,-,N/A,,Clear,110,2013-09-30 00:15:00
6:35 PM,64.0,32.7,31,29.91,10.0,ESE,5.8,-,N/A,,Clear,110,2013-09-30 00:35:00
6:55 PM,63.7,32.0,31,29.91,10.0,ESE,5.8,-,N/A,,Clear,120,2013-09-30 00:55:00
7:15 PM,61.9,32.0,33,29.90,10.0,SE,4.6,-,N/A,,Clear,130,2013-09-30 01:15:00
7:35 PM,62.2,32.7,33,29.89,10.0,South,5.8,-,N/A,,Clear,170,2013-09-30 01:35:00
7:55 PM,61.9,32.7,34,29.89,10.0,Calm,Calm,-,N/A,,Clear,0,2013-09-30 01:55:00
8:35 PM,60.4,35.2,39,29.89,10.0,Calm,Calm,-,N/A,,Clear,0,2013-09-30 02:35:00
8:55 PM,60.8,34.0,37,29.90,10.0,Calm,Calm,-,N/A,,Clear,0,2013-09-30 02:55:00
9:15 PM,61.5,32.9,34,29.91,10.0,Calm,Calm,-,N/A,,Clear,0,2013-09-30 03:15:00
9:35 PM,58.5,36.0,43,29.91,10.0,Calm,Calm,-,N/A,,Clear,0,2013-09-30 03:35:00
9:55 PM,59.4,36.0,42,29.91,10.0,West,5.8,-,N/A,,Clear,270,2013-09-30 03:55:00
10:15 PM,54.3,39.9,58,29.91,10.0,West,5.8,-,N/A,,Clear,280,2013-09-30 04:15:00
10:35 PM,54.9,39.2,56,29.92,10.0,West,5.8,-,N/A,,Clear,280,2013-09-30 04:35:00
10:55 PM,53.6,40.3,61,29.94,10.0,NNE,3.5,-,N/A,,Clear,20,2013-09-30 04:55:00
11:15 PM,53.8,39.9,59,29.94,10.0,WNW,3.5,-,N/A,,Clear,290,2013-09-30 05:15:00
11:35 PM,56.1,37.8,50,29.93,10.0,NW,6.9,-,N/A,,Clear,320,2013-09-30 05:35:00
11:55 PM,56.7,37.2,48,29.93,10.0,West,5.8,-,N/A,,Clear,280,2013-09-30 05:55:00